• In Deutschland
  • Länderverzeichnis
  • Für 7 Tage
  • Wassertemperatur
  • Satellitenkarten
  • Wetterkarte
  • Widgets
  • user-avatar
    Anmelden

    Stündliche Wetter Osnabrück

    Heute, 20 September, Donnerstag

    Zeit Temperatur Niederschläge Wind Luftdruck Luftfeuchtigkeit
    00:00 +18°C° 0 mm 3 m/S 757 mmHg 73%
    01:00 +18°C° 0 mm 3 m/S 757 mmHg 75%
    02:00 +18°C° 0 mm 3 m/S 757 mmHg 77%
    03:00 +17°C° 0 mm 3 m/S 756 mmHg 79%
    04:00 +17°C° 0 mm 3 m/S 756 mmHg 82%
    05:00 +17°C° 0 mm 3 m/S 756 mmHg 82%
    06:00 +17°C° 0 mm 3 m/S 756 mmHg 83%
    07:00 +17°C° 0 mm 4 m/S 756 mmHg 83%
    08:00 +19°C° 0 mm 4 m/S 756 mmHg 76%
    09:00 +21°C° 0 mm 5 m/S 756 mmHg 69%
    10:00 +23°C° 0 mm 6 m/S 756 mmHg 61%
    11:00 +23°C° 0 mm 6 m/S 756 mmHg 58%
    12:00 +24°C° 0 mm 6 m/S 755 mmHg 55%
    13:00 +26°C° 0 mm 6 m/S 755 mmHg 51%
    14:00 +26°C° 0 mm 6 m/S 755 mmHg 50%
    15:00 +26°C° 0 mm 6 m/S 755 mmHg 49%
    16:00 +26°C° 0 mm 5 m/S 754 mmHg 48%
    17:00 +25°C° 0 mm 5 m/S 754 mmHg 53%
    18:00 +22°C° 0 mm 4 m/S 754 mmHg 58%
    19:00 +21°C° 0 mm 3 m/S 753 mmHg 63%
    20:00 +20°C° 0 mm 3 m/S 753 mmHg 65%
    21:00 +20°C° 0 mm 3 m/S 753 mmHg 66%
    22:00 +19°C° 0 mm 4 m/S 752 mmHg 68%
    23:00 +20°C° 0 mm 4 m/S 752 mmHg 66%

    Morgen, 21 September, Freitag

    Zeit Temperatur Niederschläge Wind Luftdruck Luftfeuchtigkeit
    00:00 +20°C° 0 mm 5 m/S 751 mmHg 65%
    01:00 +20°C° 0 mm 5 m/S 750 mmHg 64%
    02:00 +20°C° 0 mm 6 m/S 749 mmHg 63%
    03:00 +21°C° 0 mm 6 m/S 748 mmHg 62%
    04:00 +21°C° 0 mm 6 m/S 748 mmHg 61%
    05:00 +21°C° 0 mm 7 m/S 747 mmHg 58%
    06:00 +22°C° 0 mm 8 m/S 746 mmHg 55%
    07:00 +22°C° 0 mm 8 m/S 746 mmHg 53%
    08:00 +21°C° 0.5 mm 9 m/S 746 mmHg 59%
    09:00 +19°C° 0.5 mm 9 m/S 747 mmHg 66%
    10:00 +18°C° 0.5 mm 10 m/S 747 mmHg 73%
    11:00 +17°C° 0.2 mm 9 m/S 748 mmHg 67%
    12:00 +17°C° 0.2 mm 9 m/S 749 mmHg 62%
    13:00 +16°C° 0.2 mm 8 m/S 750 mmHg 56%
    14:00 +16°C° 0 mm 9 m/S 751 mmHg 50%
    15:00 +17°C° 0 mm 9 m/S 751 mmHg 44%
    16:00 +17°C° 0 mm 9 m/S 752 mmHg 38%
    17:00 +16°C° 0 mm 8 m/S 752 mmHg 41%
    18:00 +15°C° 0 mm 7 m/S 753 mmHg 44%
    19:00 +13°C° 0 mm 5 m/S 753 mmHg 48%
    20:00 +13°C° 0 mm 6 m/S 754 mmHg 51%
    21:00 +13°C° 0 mm 6 m/S 754 mmHg 55%
    22:00 +11°C° 0 mm 7 m/S 755 mmHg 58%
    23:00 +11°C° 0 mm 6 m/S 755 mmHg 61%

    übermorgen, 22 September, Samstag

    Zeit Temperatur Niederschläge Wind Luftdruck Luftfeuchtigkeit
    00:00 +11°C° 0 mm 6 m/S 755 mmHg 64%
    01:00 +11°C° 0 mm 6 m/S 755 mmHg 67%
    02:00 +10°C° 0 mm 6 m/S 756 mmHg 68%
    03:00 +10°C° 0 mm 6 m/S 756 mmHg 70%
    04:00 +10°C° 0 mm 5 m/S 756 mmHg 71%
    05:00 +10°C° 0 mm 5 m/S 756 mmHg 72%
    06:00 +10°C° 0 mm 5 m/S 757 mmHg 74%
    07:00 +9°C° 0 mm 5 m/S 757 mmHg 75%
    08:00 +11°C° 0 mm 6 m/S 757 mmHg 69%
    09:00 +12°C° 0 mm 7 m/S 758 mmHg 62%
    10:00 +14°C° 0 mm 7 m/S 758 mmHg 56%
    11:00 +15°C° 0.1 mm 7 m/S 758 mmHg 55%
    12:00 +15°C° 0.1 mm 7 m/S 758 mmHg 54%
    13:00 +15°C° 0.1 mm 7 m/S 758 mmHg 52%
    14:00 +15°C° 0.1 mm 7 m/S 758 mmHg 51%
    15:00 +16°C° 0.1 mm 7 m/S 758 mmHg 49%
    16:00 +16°C° 0.1 mm 7 m/S 758 mmHg 47%
    17:00 +15°C° 0 mm 6 m/S 758 mmHg 51%
    18:00 +14°C° 0 mm 4 m/S 758 mmHg 54%
    19:00 +12°C° 0 mm 3 m/S 759 mmHg 58%
    20:00 +12°C° 0 mm 3 m/S 759 mmHg 62%
    21:00 +11°C° 0 mm 3 m/S 759 mmHg 66%
    22:00 +10°C° 0 mm 2 m/S 759 mmHg 70%
    23:00 +9°C° 0 mm 2 m/S 759 mmHg 72%

    23 September, Sonntag

    Zeit Temperatur Niederschläge Wind Luftdruck Luftfeuchtigkeit
    00:00 +9°C° 0 mm 2 m/S 759 mmHg 74%
    01:00 +9°C° 0 mm 2 m/S 758 mmHg 75%
    02:00 +9°C° 0.1 mm 2 m/S 758 mmHg 76%
    03:00 +9°C° 0.1 mm 2 m/S 758 mmHg 76%
    04:00 +10°C° 0.1 mm 2 m/S 757 mmHg 76%
    05:00 +10°C° 0.1 mm 3 m/S 757 mmHg 79%
    06:00 +10°C° 0.1 mm 3 m/S 756 mmHg 82%
    07:00 +10°C° 0.1 mm 3 m/S 755 mmHg 85%
    08:00 +10°C° 0.2 mm 4 m/S 754 mmHg 84%
    09:00 +11°C° 0.2 mm 4 m/S 753 mmHg 83%
    10:00 +10°C° 0.2 mm 5 m/S 751 mmHg 83%
    11:00 +10°C° 1.5 mm 5 m/S 750 mmHg 85%
    12:00 +11°C° 1.5 mm 6 m/S 748 mmHg 88%
    13:00 +11°C° 1.5 mm 6 m/S 746 mmHg 91%
    14:00 +14°C° 4 mm 6 m/S 745 mmHg 91%
    15:00 +15°C° 4 mm 6 m/S 743 mmHg 92%
    16:00 +16°C° 4 mm 6 m/S 742 mmHg 93%
    17:00 +17°C° 1.6 mm 7 m/S 740 mmHg 91%
    18:00 +17°C° 1.6 mm 7 m/S 739 mmHg 89%
    19:00 +18°C° 1.6 mm 8 m/S 737 mmHg 87%
    20:00 +16°C° 0.7 mm 7 m/S 736 mmHg 86%
    21:00 +15°C° 0.7 mm 6 m/S 736 mmHg 84%
    22:00 +13°C° 0.7 mm 5 m/S 735 mmHg 83%
    23:00 +11°C° 1.3 mm 8 m/S 737 mmHg 84%

    24 September, Montag

    Zeit Temperatur Niederschläge Wind Luftdruck Luftfeuchtigkeit
    00:00 +9°C° 1.3 mm 10 m/S 738 mmHg 85%
    01:00 +9°C° 1.3 mm 13 m/S 740 mmHg 86%
    02:00 +8°C° 0.2 mm 12 m/S 743 mmHg 83%
    03:00 +8°C° 0.2 mm 10 m/S 746 mmHg 80%
    04:00 +8°C° 0.2 mm 9 m/S 750 mmHg 77%
    05:00 +8°C° 0 mm 9 m/S 751 mmHg 76%
    06:00 +8°C° 0 mm 9 m/S 753 mmHg 75%
    07:00 +9°C° 0 mm 8 m/S 755 mmHg 74%
    08:00 +10°C° 0.1 mm 9 m/S 756 mmHg 69%
    09:00 +11°C° 0.1 mm 10 m/S 757 mmHg 64%
    10:00 +12°C° 0.1 mm 10 m/S 759 mmHg 59%
    11:00 +12°C° 0.1 mm 10 m/S 759 mmHg 59%
    12:00 +12°C° 0.1 mm 10 m/S 760 mmHg 59%
    13:00 +12°C° 0.1 mm 9 m/S 761 mmHg 58%
    14:00 +12°C° 0.2 mm 9 m/S 762 mmHg 59%
    15:00 +11°C° 0.2 mm 9 m/S 763 mmHg 60%
    16:00 +11°C° 0.2 mm 8 m/S 763 mmHg 61%
    17:00 +10°C° 0 mm 7 m/S 764 mmHg 64%
    18:00 +9°C° 0 mm 6 m/S 764 mmHg 66%
    19:00 +9°C° 0 mm 5 m/S 765 mmHg 69%
    20:00 +8°C° 0 mm 5 m/S 765 mmHg 71%
    21:00 +8°C° 0 mm 5 m/S 766 mmHg 73%
    22:00 +8°C° 0 mm 5 m/S 766 mmHg 75%
    23:00 +8°C° 0 mm 5 m/S 766 mmHg 76%

    25 September, Dienstag

    Zeit Temperatur Niederschläge Wind Luftdruck Luftfeuchtigkeit
    00:00 +8°C° 0 mm 6 m/S 766 mmHg 77%
    01:00 +9°C° 0 mm 6 m/S 766 mmHg 78%
    02:00 +9°C° 0.1 mm 6 m/S 766 mmHg 79%
    03:00 +9°C° 0.1 mm 5 m/S 766 mmHg 81%
    04:00 +9°C° 0.1 mm 5 m/S 766 mmHg 82%
    05:00 +10°C° 0 mm 4 m/S 767 mmHg 85%
    06:00 +8°C° 0 mm 4 m/S 767 mmHg 87%
    07:00 +8°C° 0 mm 4 m/S 768 mmHg 90%
    08:00 +11°C° 0 mm 4 m/S 768 mmHg 82%
    09:00 +12°C° 0 mm 4 m/S 768 mmHg 75%
    10:00 +14°C° 0 mm 5 m/S 768 mmHg 67%
    11:00 +15°C° 0.1 mm 5 m/S 768 mmHg 64%
    12:00 +16°C° 0.1 mm 5 m/S 768 mmHg 62%
    13:00 +16°C° 0.1 mm 5 m/S 768 mmHg 59%
    14:00 +16°C° 0.1 mm 5 m/S 768 mmHg 59%
    15:00 +16°C° 0.1 mm 5 m/S 768 mmHg 60%
    16:00 +16°C° 0.1 mm 5 m/S 768 mmHg 60%
    17:00 +15°C° 0 mm 4 m/S 768 mmHg 67%
    18:00 +13°C° 0 mm 3 m/S 768 mmHg 73%
    19:00 +13°C° 0 mm 2 m/S 768 mmHg 80%
    20:00 +12°C° 0 mm 2 m/S 768 mmHg 83%
    21:00 +12°C° 0 mm 2 m/S 768 mmHg 85%
    22:00 +10°C° 0 mm 2 m/S 769 mmHg 88%
    23:00 +10°C° 0 mm 2 m/S 768 mmHg 89%
    Mehr zeigen